Location: Dattensoll
(49.9928°N, 9.8954°E)
Time: 16:39:35
(UTC+00:00)

Cosmos 1470 - Pass Details

Date: 19 May 2025
Orbit: 455 x 466 km, 82.5° (Epoch: 17 June)

Event Time Altitude Azimuth Distance (km) Brightness Sun altitude
Rises 23:02:59 0° 345° (NNW) 2,519 7.7 -20.0°
Reaches altitude 10° 23:05:06 10° 340° (NNW) 1,638 6.3 -20.0°
Maximum altitude 23:08:34 50° 265° (W) 609 2.9 -20.0°
Enters shadow 23:08:49 49° 250° (WSW) 618 2.9 -20.0°
